Regional Weather Roundup
Issued by NWS Newport/Morehead, NC

Current Version | Previous Version | Text Only | Print | Product List | Glossary On
Versions: 1 2 3 4 5 6 7 8 9 10 11 12 13 14 15 16 17 18 19 20 21 22 23 24 25 26 27 28 29 30 31 32 33 34 35 36 37 38 39 40 41 42 43 44 45 46 47 48 49 50
000
ASUS42 KMHX 230825
RWRMHX
WEATHER ROUNDUP FOR EASTERN NORTH CAROLINA
NATIONAL WEATHER SERVICE NEWPORT/MOREHEAD CITY NC
300 AM EST MON JAN 23 2017

NOTE: "FAIR" INDICATES FEW OR NO CLOUDS BELOW 12,000 FEET
WITH NO SIGNIFICANT WEATHER AND/OR OBSTRUCTIONS TO VISIBILITY

NCZ015>017-031-032-045>047-102-103-230900-
NORTH COAST

CITY           SKY/WX    TMP DP  RH WIND       PRES   REMARKS
EDENTON        LGT RAIN  52  50  94 E9        29.38F
ELIZABETH CITY RAIN      49  49 100 N8        29.43F FOG
KITTY HAWK     NOT AVBL
MANTEO         DRIZZLE   49  49 100 E9        29.43S

$$

NCZ045>047-081-094-103-104-230900-
CENTRAL COAST

CITY           SKY/WX    TMP DP  RH WIND       PRES   REMARKS
FRISCO         LGT RAIN  57  56  96 E8G18     29.36F FOG

$$

NCZ095-097-098-100-101-230900-
SOUTHERN COAST

CITY           SKY/WX    TMP DP  RH WIND       PRES   REMARKS
BEAUFORT       HVY RAIN  63  62  97 N14G30    29.30R FOG
CEDAR ISLAND   NOT AVBL
JACKSONVILLE   CLOUDY    57  57 100 NE8       29.27F
PINEY ISLAND   LGT RAIN N/A N/A N/A E18G29    29.31F
WILMINGTON     MOCLDY    64  64 100 S8        29.24F


$$

NCZ011>013-027>030-043-044-078>080-089-090>093-098-230900-
COASTAL PLAIN

CITY           SKY/WX    TMP DP  RH WIND       PRES   REMARKS
AHOSKIE        RAIN      49  48  97 NE8       29.38F
CLINTON        LGT RAIN  59  59 100 E6G17     29.24F
ELIZABETHTOWN  CLOUDY    61  61 100 SE3       29.22F
GOLDSBORO      CLOUDY    54  54 100 E17       29.24F
GREENVILLE     NOT AVBL
HAVELOCK       RAIN      52  51  97 N8        29.35F
KENANSVILLE    CLOUDY    57  57 100 E6        29.26F
KINSTON        RAIN      54  54 100 E8        29.32F
NEW BERN       RAIN      54  53  97 VRB3      29.34S FOG
RICHLANDS      CLOUDY    57  56  96 E14       29.29F
ROCKY MOUNT    LGT RAIN  52  52 100 NE8       29.35F
WASHINGTON     LGT RAIN  51  51  99 E10         N/A
WHITEVILLE     CLOUDY    63  61  96 S5        29.23R

$$

AMZ130-135-150-152-154-156-158-170-250-252-270-ANZ085-086-088-633-658-670-230900-
MARINE OBSERVATIONS

STATION/POSITION TIME  TEMP    WIND        PRES    WAVE   SWELL
                       AIR SEA DIR/SP/G            HT/PER HT/PER
                 (UTC) (F)     (DEG/KT/KT) (MB)    (FT/S) (FT/S)
CHESAPEAKE LIGHT NOT AVBL
64 E VA BEACH    0750   55 56  100/ 14/ 16  997.0    4/13   3/13
DUCK             0800   47 46   40/  5/  6  996.4
2 E DUCK         0800      46                N/A     3/13   2/13
OREGON INLET     0800   51 50   70/ 11/ 17  994.9
13E OREGON INLT  NOT AVBL
HATTERAS CG      0800   56 55   50/  9/ 13  994.3
DIAMOND BUOY     0750   67 71  130/ 14/ 17  995.1    5/14   5/14
CAPE LOOKOUT     0800   67     150/ 25/ 26  991.0
BEAUFORT LAB     0800   62 52  330/ 12/ 22  991.2
30 SE NEW RVR IN 0808   68 70  190/ 25/ 37  990.1
30 SE NEW RVR IN 0813      70                N/A    11/ 8   2/13
27 SE WRIGHTSVLE 0808   68 68  220/ 19/ 27  989.7
5 SE WRIGHTSVLE  0808   60     210/ 16/ 23  990.4
225 S CAPE HAT   0750   74 71  180/ 25/ 31  997.5   13/ 9   8/ 9
41 SE CHARLESTON 0750   63 65  260/ 27/ 35  992.3   11/ 8   5/16

$$




USA.gov is the U.S. government's official web portal to all federal, state and local government web resources and services.